[[{"header":{"parameterUnit":"m.s-1","parameterCategory":1,"la1":30.2991,"la2":30.254,"lo1":-89.0895,"lo2":-89.0444,"dy":0.0017,"dx":0.0017,"nx":28,"ny":28,"refTime":"2023-06-28T21:00:00:Z","depth":0,"parameterNumber":2,"parameterNumberName":"U-component_of_WINDS"},"data":[0,0,0,0,0,0,0,0,0,0,0,0,0,0,0,0,0,0,0,0,0,0,0,0,0,0,0,0,0,0,0,0,0,0,0,0,0,0,0,0,0,0,0,0,0,0,0,0,0,0,0,0,0,0,0,0,0,0,-0.3288,-0.3288,0,-0.3331,-0.3332,-0.3332,-0.3362,-0.3362,-0.3362,-0.3362,-0.3405,-0.3406,-0.3407,0,0,0,0,0,0,0,0,0,0,0,0,0,-0.3228,-0.3229,-0.3288,-0.3288,-0.3289,-0.3331,-0.3332,-0.3332,-0.3362,-0.3362,-0.3362,-0.3363,-0.3404,-0.3406,-0.3407,0,0,0,0,0,0,0,0,0,0,0,0,0,-0.3261,-0.3229,-0.3288,-0.3309,-0.3311,-0.3331,-0.3332,-0.3333,-0.3362,-0.3362,-0.3362,-0.3363,-0.3404,-0.3405,-0.3407,-0.3409,0,0,-0.3411,-0.3412,0,0,0,0,0,0,0,0,-0.3259,-0.3263,-0.3305,-0.3307,-0.331,-0.3342,-0.3326,-0.3358,-0.3362,-0.3342,-0.3362,-0.3363,-0.3383,-0.3386,-0.3394,-0.3411,-0.3413,-0.3411,-0.3412,-0.3413,-0.3413,0,0,0,0,0,0,0,-0.3257,-0.3261,-0.3305,-0.3306,-0.3309,-0.3315,-0.332,-0.3333,-0.336,-0.3344,-0.3346,-0.3351,-0.3385,-0.3392,-0.3395,-0.3413,-0.3411,-0.3412,-0.3413,-0.3414,-0.3434,-0.3434,0,0,0,0,0,0,-0.3251,-0.3259,-0.3303,-0.3306,-0.3285,-0.3316,-0.3322,-0.3331,-0.336,-0.3365,-0.3351,-0.3352,-0.339,-0.3393,-0.3397,-0.3401,-0.3413,-0.3414,-0.3415,-0.3434,-0.3434,-0.3434,0,0,0,0,0,0,-0.325,-0.3255,-0.3302,-0.3283,-0.329,-0.3317,-0.3327,-0.3332,-0.3339,-0.3366,-0.337,-0.3354,-0.339,-0.3395,-0.3406,-0.3402,-0.3414,-0.3416,-0.3435,-0.3434,-0.3434,-0.3409,0,0,0,0,0,0,-0.3248,-0.3254,-0.3256,-0.3283,-0.3291,-0.331,-0.3327,-0.3332,-0.3342,-0.3344,-0.3369,-0.3374,-0.3391,-0.3403,-0.3407,-0.3405,-0.3417,-0.3435,-0.3434,-0.3434,-0.341,-0.3407,-0.3405,0,0,0,0,0,-0.3246,-0.3247,-0.3256,-0.3261,-0.3293,-0.331,-0.3314,-0.3335,-0.3342,-0.3343,-0.336,-0.3373,-0.3403,-0.3404,-0.3409,-0.3406,-0.3435,-0.3435,-0.3434,-0.3411,-0.3408,-0.3405,0,0,0,0,0,0,-0.3217,-0.325,-0.3261,-0.3271,-0.3287,-0.3315,-0.3317,-0.3331,-0.3345,-0.3347,-0.3371,-0.3376,-0.3384,-0.3397,-0.3398,-0.341,-0.342,-0.3421,-0.3401,-0.3399,-0.3397,-0.3393,-0.3418,0,0,0,0,0,-0.3212,-0.3224,-0.3252,-0.3258,-0.3266,-0.329,-0.3298,-0.3313,-0.3331,-0.3338,-0.3355,-0.3372,-0.3385,-0.3393,-0.3406,-0.3412,-0.3418,-0.3413,-0.3411,-0.3409,-0.3408,-0.3412,-0.341,-0.3431,-0.3431,-0.3431,0,0,-0.3201,-0.3221,-0.3227,-0.3252,-0.3267,-0.3278,-0.3296,-0.3307,-0.3315,-0.3339,-0.3351,-0.3364,-0.3384,-0.3393,-0.3397,-0.3403,-0.3404,-0.3408,-0.3406,-0.3407,-0.3411,-0.3409,-0.3407,-0.3431,-0.3431,-0.3431,0,0,-0.3187,-0.3203,-0.321,-0.3224,-0.3247,-0.3263,-0.3265,-0.3291,-0.3301,-0.3313,-0.3332,-0.3342,-0.3364,-0.3377,-0.3387,-0.3379,-0.3391,-0.3382,-0.337,-0.3373,-0.3372,-0.337,-0.3367,-0.3365,-0.3382,-0.3382,-0.3382,0,-0.317,-0.3188,-0.3211,-0.3221,-0.3232,-0.3255,-0.3261,-0.3275,-0.33,-0.3306,-0.3313,-0.3341,-0.3356,-0.3368,-0.3366,-0.3374,-0.3376,-0.3379,-0.337,-0.3369,-0.3368,-0.3365,-0.3363,-0.3381,-0.3381,-0.3381,-0.3381,0,-0.3166,-0.3178,-0.3181,-0.3205,-0.3217,-0.3225,-0.3248,-0.3257,-0.327,-0.3286,-0.3298,-0.3317,-0.3335,-0.3339,-0.3352,-0.3353,-0.3356,-0.3366,-0.3377,-0.3364,-0.3362,-0.3361,-0.3379,-0.3379,-0.338,-0.338,0,0,-0.3133,-0.3171,-0.3172,-0.3183,-0.3211,-0.322,-0.3229,-0.3248,-0.3254,-0.3271,-0.3279,-0.3297,-0.3307,-0.3318,-0.3333,-0.3336,-0.3328,-0.3346,-0.3347,-0.3341,-0.3329,-0.332,-0.3319,-0.3337,-0.3337,-0.3337,-0.3327,0,-0.3122,-0.314,-0.3162,-0.3172,-0.3183,-0.3207,-0.3215,-0.3232,-0.3247,-0.3258,-0.3275,-0.3287,-0.33,-0.3307,-0.3311,-0.3328,-0.3326,-0.3329,-0.3343,-0.3344,-0.3336,-0.3317,-0.3308,-0.3298,-0.3326,-0.3326,-0.3326,0,-0.3111,-0.3128,-0.314,-0.3166,-0.3172,-0.3178,-0.3197,-0.3208,-0.3228,-0.3239,-0.3252,-0.3268,-0.3278,-0.3289,-0.3303,-0.3305,-0.3312,-0.3321,-0.3321,-0.3322,-0.3333,-0.3317,-0.3296,-0.3293,-0.3325,-0.3325,-0.3325,0,-0.3084,-0.311,-0.3121,-0.313,-0.3161,-0.3166,-0.3179,-0.3199,-0.3209,-0.3225,-0.3232,-0.3248,-0.3257,-0.327,-0.329,-0.3296,-0.3302,-0.3314,-0.331,-0.3309,-0.3309,-0.3308,-0.3287,-0.3316,-0.3316,-0.3316,-0.3316,0,-0.3069,-0.3075,-0.3109,-0.3115,-0.3123,-0.3148,-0.3154,-0.317,-0.3188,-0.3197,-0.3218,-0.3226,-0.3253,-0.3264,-0.328,-0.3289,-0.3293,-0.3301,-0.3305,-0.3299,-0.3298,-0.3303,-0.3304,-0.3315,-0.3315,-0.3315,-0.3315,0,-0.304,-0.3063,-0.3076,-0.3105,-0.3113,-0.3117,-0.3142,-0.3148,-0.3165,-0.3177,-0.3181,-0.3207,-0.3221,-0.3243,-0.3264,-0.3274,-0.328,-0.3287,-0.3273,-0.3276,-0.327,-0.327,-0.3251,-0.3249,-0.3279,-0.3279,-0.3279,0,-0.3028,-0.3033,-0.3063,-0.3072,-0.3084,-0.3097,-0.3108,-0.3132,-0.3142,-0.3166,-0.317,-0.3186,-0.32,-0.3222,-0.3242,-0.3258,-0.3265,-0.3257,-0.3267,-0.326,-0.3263,-0.3262,-0.3262,-0.3254,-0.3253,-0.3253,-0.3253,0,-0.3003,-0.3015,-0.3029,-0.3048,-0.306,-0.3076,-0.3093,-0.3098,-0.3126,-0.3136,-0.3152,-0.3163,-0.3184,-0.32,-0.3219,-0.3232,-0.3246,-0.325,-0.325,-0.3242,-0.3233,-0.3237,-0.3266,-0.325,-0.325,-0.325,-0.325,-0.325,-0.2982,-0.2987,-0.301,-0.3025,-0.3041,-0.3056,-0.3064,-0.3083,-0.3096,-0.3116,-0.313,-0.3145,-0.3165,-0.3192,-0.3204,-0.3216,-0.3222,-0.3222,-0.3222,-0.3221,-0.3218,-0.3233,-0.3219,-0.3219,-0.3219,-0.322,-0.322,0,-0.2957,-0.2973,-0.2988,-0.3011,-0.3023,-0.3038,-0.3057,-0.3066,-0.3079,-0.3097,-0.3111,-0.3129,-0.3144,-0.3166,-0.3183,-0.3188,-0.3195,-0.3191,-0.319,-0.3193,-0.3212,-0.321,-0.3185,-0.3185,-0.3185,-0.3185,-0.3185,-0.3185,-0.2946,-0.2957,-0.2971,-0.299,-0.3006,-0.3021,-0.303,-0.3044,-0.3059,-0.3078,-0.3092,-0.3107,-0.3126,-0.3145,-0.316,-0.3166,-0.317,-0.3164,-0.3172,-0.3189,-0.3192,-0.3195,-0.3193,-0.3165,-0.3165,-0.3153,-0.3153,-0.3152]},{"header":{"parameterUnit":"m.s-1","parameterCategory":1,"la1":30.2991,"la2":30.254,"lo1":-89.0895,"lo2":-89.0444,"dy":0.0017,"dx":0.0017,"nx":28,"ny":28,"refTime":"2023-06-28T21:00:00:Z","depth":0,"parameterNumber":3,"parameterNumberName":"V-component_of_WINDS"},"data":[0,0,0,0,0,0,0,0,0,0,0,0,0,0,0,0,0,0,0,0,0,0,0,0,0,0,0,0,0,0,0,0,0,0,0,0,0,0,0,0,0,0,0,0,0,0,0,0,0,0,0,0,0,0,0,0,0,0,0.8673,0.8674,0,0.8778,0.878,0.8781,0.8836,0.8836,0.8836,0.8836,0.8947,0.895,0.8953,0,0,0,0,0,0,0,0,0,0,0,0,0,0.8523,0.8525,0.8673,0.8674,0.8676,0.8778,0.878,0.8781,0.8836,0.8836,0.8836,0.8836,0.8946,0.8949,0.8953,0,0,0,0,0,0,0,0,0,0,0,0,0,0.8604,0.8526,0.8673,0.8715,0.872,0.8778,0.878,0.8782,0.8836,0.8836,0.8836,0.8836,0.8945,0.8949,0.8953,0.8978,0,0,0.8966,0.8968,0,0,0,0,0,0,0,0,0.8599,0.861,0.8708,0.8712,0.8718,0.8794,0.8767,0.8847,0.8836,0.8792,0.8836,0.8836,0.8896,0.8904,0.8924,0.8983,0.8987,0.8967,0.8969,0.8971,0.8972,0,0,0,0,0,0,0,0.8594,0.8605,0.8715,0.8709,0.8715,0.873,0.8742,0.8783,0.8842,0.8796,0.88,0.8812,0.8899,0.892,0.8927,0.8989,0.8967,0.8971,0.8973,0.8975,0.9075,0.9075,0,0,0,0,0,0,0.8581,0.86,0.8711,0.8718,0.8658,0.8733,0.8746,0.877,0.8842,0.8853,0.8812,0.8814,0.8912,0.8922,0.8931,0.8966,0.8971,0.8975,0.8978,0.9075,0.9075,0.9075,0,0,0,0,0,0,0.8577,0.859,0.8707,0.866,0.8676,0.8735,0.8762,0.8772,0.8792,0.8854,0.8865,0.8822,0.8913,0.8925,0.8966,0.897,0.8977,0.8981,0.9075,0.9075,0.9075,0.9033,0,0,0,0,0,0,0.8573,0.8589,0.8597,0.866,0.8679,0.8739,0.8762,0.8774,0.8799,0.8804,0.8866,0.8877,0.8914,0.8959,0.897,0.8976,0.8985,0.9075,0.9075,0.9075,0.9035,0.9032,0.903,0,0,0,0,0,0.8567,0.8582,0.8598,0.8611,0.8691,0.8739,0.875,0.8791,0.8799,0.881,0.8849,0.8875,0.8968,0.8963,0.8976,0.8983,0.9075,0.9075,0.9075,0.9036,0.9033,0.903,0,0,0,0,0,0,0.8519,0.8591,0.8609,0.8644,0.8685,0.8748,0.8762,0.8786,0.8826,0.8829,0.888,0.8894,0.893,0.8961,0.8954,0.9011,0.9024,0.9027,0.899,0.8987,0.8985,0.8977,0.8988,0,0,0,0,0,0.8512,0.8544,0.8605,0.863,0.865,0.8702,0.8725,0.8753,0.8798,0.8816,0.8859,0.8902,0.8941,0.8966,0.9005,0.904,0.9055,0.9051,0.9049,0.9047,0.9048,0.907,0.907,0.9076,0.9076,0.9076,0,0,0.8498,0.8542,0.8559,0.8622,0.8657,0.869,0.8716,0.875,0.8776,0.8822,0.8862,0.8895,0.8947,0.8985,0.9004,0.9012,0.905,0.9047,0.9044,0.9048,0.9071,0.907,0.9069,0.9076,0.9076,0.9076,0,0,0.8491,0.8526,0.8551,0.8586,0.8639,0.8674,0.868,0.874,0.8763,0.8805,0.884,0.8872,0.8938,0.8974,0.9001,0.9009,0.9034,0.902,0.9008,0.9029,0.9028,0.9028,0.9032,0.9032,0.9022,0.9022,0.9022,0,0.8468,0.8518,0.8561,0.8593,0.8621,0.8663,0.869,0.8722,0.8785,0.8804,0.8811,0.8896,0.8934,0.8982,0.8984,0.9004,0.9013,0.9013,0.9024,0.9025,0.9025,0.903,0.9031,0.902,0.902,0.902,0.902,0,0.8488,0.8522,0.8536,0.8595,0.8624,0.8654,0.8703,0.8727,0.8754,0.8788,0.8832,0.8879,0.8929,0.8943,0.8969,0.8995,0.8998,0.9014,0.9028,0.9022,0.9027,0.9029,0.9017,0.9018,0.9018,0.9019,0,0,0.8452,0.8535,0.854,0.8568,0.8629,0.8657,0.8689,0.8738,0.8758,0.8801,0.883,0.8886,0.8902,0.8932,0.8963,0.8982,0.8986,0.8996,0.8998,0.8993,0.9019,0.9006,0.9007,0.9003,0.9004,0.9004,0.9015,0,0.8453,0.8511,0.8552,0.8595,0.8628,0.867,0.8698,0.8739,0.8773,0.8807,0.8845,0.8884,0.8902,0.892,0.894,0.8981,0.8992,0.8981,0.9032,0.9033,0.9018,0.901,0.8996,0.9004,0.9017,0.9017,0.9017,0,0.8463,0.8503,0.8549,0.8608,0.8624,0.8648,0.8697,0.8728,0.8777,0.8801,0.8835,0.8867,0.8905,0.8915,0.8968,0.896,0.8983,0.9007,0.9008,0.9015,0.9025,0.9017,0.9007,0.9008,0.9021,0.902,0.902,0,0.8433,0.8499,0.8535,0.8558,0.8628,0.8644,0.8674,0.8723,0.875,0.8793,0.8812,0.8859,0.8884,0.8921,0.8965,0.8969,0.9014,0.9028,0.9036,0.9035,0.9044,0.9042,0.9038,0.9058,0.9058,0.9058,0.9058,0,0.8431,0.8457,0.8523,0.8545,0.8577,0.8624,0.8655,0.8689,0.8732,0.8763,0.8802,0.8831,0.8887,0.8923,0.8959,0.8998,0.9009,0.903,0.9039,0.9027,0.9024,0.9043,0.9044,0.9058,0.9058,0.9058,0.9058,0,0.8402,0.8447,0.849,0.8552,0.8569,0.859,0.8644,0.8668,0.8704,0.8743,0.8755,0.8812,0.8856,0.8904,0.8965,0.8989,0.9027,0.9039,0.901,0.9015,0.902,0.9019,0.9028,0.9032,0.9048,0.9048,0.9048,0,0.8398,0.8419,0.8484,0.8507,0.8536,0.8573,0.8601,0.8649,0.8677,0.8735,0.8752,0.8799,0.884,0.8909,0.8957,0.9004,0.9018,0.9018,0.9026,0.9013,0.902,0.9018,0.9021,0.9016,0.9016,0.9015,0.9015,0,0.8386,0.8407,0.8445,0.8491,0.8523,0.8562,0.8603,0.862,0.8676,0.8706,0.8751,0.8782,0.8845,0.8892,0.8945,0.8978,0.9006,0.9012,0.9017,0.9004,0.8987,0.8997,0.9004,0.9012,0.9012,0.9012,0.9013,0.9013,0.837,0.8392,0.8441,0.8482,0.8518,0.8555,0.8581,0.862,0.8659,0.8712,0.8739,0.8785,0.8835,0.8909,0.8942,0.8979,0.8988,0.8994,0.8996,0.8997,0.8994,0.898,0.8989,0.8989,0.8989,0.899,0.899,0,0.8361,0.8395,0.8432,0.8488,0.8521,0.8544,0.859,0.8617,0.8656,0.87,0.8739,0.8792,0.8838,0.889,0.894,0.896,0.8975,0.8972,0.8971,0.8978,0.8983,0.8974,0.8959,0.8959,0.8959,0.8959,0.8959,0.8959,0.836,0.8398,0.8425,0.8481,0.8516,0.856,0.8585,0.862,0.8656,0.8713,0.8751,0.8784,0.8832,0.8886,0.893,0.8944,0.8961,0.8954,0.8972,0.8975,0.8978,0.898,0.8972,0.8957,0.8957,0.8965,0.8965,0.8965]}]]